Dashboard

GC7XB6C - 12# De Blauwbloezen

by Expie

published: Wed, 12 Sep 2018 8:04:00 am

Certitude Solution



Puzzle stats
119 Woo-Hoo!
47 D'Oh!
Latest activity:
Tue, 18 Sep 2018
Note that some of those attempts may have been anonymous.



You can subscribe to an RSS feed for:
 this puzzle
 Expie's puzzles
 puzzles in N50 E004 quadrangle
 puzzles in Vlaams-Brabant
 all puzzles

Your geocaching name is unknown, please sign in to identify yourself. How does it work?

Puzzle solvers, you can certify your solution here:
Show solution 
Show attempts 

(keyword required)
  Stay anonymous

Certified solvers

RankUserTime (Brussels, Europe)
1.DwiggerWed, 12 Sep 2018 8:25:44 am
2.KoidreamWed, 12 Sep 2018 8:40:29 am
3.KamaSnurkaWed, 12 Sep 2018 8:49:15 am
4.soyoyastWed, 12 Sep 2018 8:56:01 am
5.metkerrekeWed, 12 Sep 2018 9:14:01 am
6.GeroMinosWed, 12 Sep 2018 10:15:03 am
7.HuntingBWed, 12 Sep 2018 10:22:11 am
8.EveRan2013Wed, 12 Sep 2018 10:45:11 am
9.Christelle & FionaWed, 12 Sep 2018 10:50:41 am
10.brestWed, 12 Sep 2018 11:02:25 am
11.kadeekesWed, 12 Sep 2018 11:16:02 am
12.johnny lightningWed, 12 Sep 2018 11:22:49 am
13.JeankeMotarWed, 12 Sep 2018 11:44:56 am
14.WaldogWed, 12 Sep 2018 12:36:32 pm
15.team fredstromWed, 12 Sep 2018 12:40:38 pm
16.krisalninWed, 12 Sep 2018 1:06:13 pm
17.badmintonnersWed, 12 Sep 2018 1:39:39 pm
18.Sabbi17Wed, 12 Sep 2018 1:46:56 pm
19.rickrichWed, 12 Sep 2018 2:34:34 pm
20.daniella&julienWed, 12 Sep 2018 2:53:02 pm
21.Bruintje.de.beerWed, 12 Sep 2018 2:57:33 pm
22.BriSan.Wed, 12 Sep 2018 3:14:00 pm
23.wandeltrakkerWed, 12 Sep 2018 3:22:06 pm
24.Edine4geoWed, 12 Sep 2018 4:06:14 pm
25.heksemie anirca62Wed, 12 Sep 2018 4:43:15 pm
26.de vliegenvangersWed, 12 Sep 2018 5:58:07 pm
27.prins6Wed, 12 Sep 2018 6:10:26 pm
28.snollebollekesWed, 12 Sep 2018 6:29:49 pm
29.sponskenWed, 12 Sep 2018 6:37:18 pm
30.lowie49Wed, 12 Sep 2018 6:50:37 pm
31.JoanyoWed, 12 Sep 2018 7:54:13 pm
32.yves2806Wed, 12 Sep 2018 8:35:00 pm
33.MREBWed, 12 Sep 2018 9:01:57 pm
34.egelshofWed, 12 Sep 2018 9:12:48 pm
35.ErannWed, 12 Sep 2018 9:25:47 pm
36.The CloudWed, 12 Sep 2018 9:25:54 pm
37.VOSPAMAWed, 12 Sep 2018 10:00:06 pm
38.tfxerWed, 12 Sep 2018 10:11:40 pm
39.The LevellersWed, 12 Sep 2018 10:17:38 pm
40.OGTariWed, 12 Sep 2018 10:30:05 pm
41.Stylo & JoskeWed, 12 Sep 2018 10:52:17 pm
42.LuintoSTWed, 12 Sep 2018 11:07:21 pm
43.rommarWed, 12 Sep 2018 11:30:55 pm
44.Joske0304699Wed, 12 Sep 2018 11:47:51 pm
45.machpatThu, 13 Sep 2018 12:23:40 am
46.PoeFThu, 13 Sep 2018 12:28:10 am
47.Tonmar47Thu, 13 Sep 2018 12:37:40 am
48.KHU1Thu, 13 Sep 2018 5:08:28 am
49.haka1Thu, 13 Sep 2018 6:58:10 am
50.johannemieThu, 13 Sep 2018 9:14:37 am
51.TORRAXThu, 13 Sep 2018 10:06:37 am
52.ZwuzzeThu, 13 Sep 2018 11:02:22 am
53.Ricky50Thu, 13 Sep 2018 11:31:13 am
54.LiaIneThu, 13 Sep 2018 11:58:01 am
55.timmy2730Thu, 13 Sep 2018 2:04:59 pm
56.R_JThu, 13 Sep 2018 4:00:24 pm
57.mikee67Thu, 13 Sep 2018 4:18:34 pm
58.de smileyThu, 13 Sep 2018 5:07:54 pm
59.Nettles2014Thu, 13 Sep 2018 6:26:09 pm
60.HEYTSEThu, 13 Sep 2018 8:06:23 pm
61.KnokkertjeThu, 13 Sep 2018 9:58:04 pm
62.Scallie73Thu, 13 Sep 2018 10:26:33 pm
63.weba25Thu, 13 Sep 2018 10:27:45 pm
64.GeellukamajaThu, 13 Sep 2018 10:35:54 pm
65.maguy15Thu, 13 Sep 2018 11:04:02 pm
66.tinrafFri, 14 Sep 2018 2:58:10 pm
67.akelaindeweerFri, 14 Sep 2018 3:58:33 pm
68.liliremFri, 14 Sep 2018 5:03:57 pm
69.kato3Fri, 14 Sep 2018 6:52:56 pm
70.Dine =)Fri, 14 Sep 2018 8:24:43 pm
71.TeamYarDieFri, 14 Sep 2018 10:28:16 pm
72.sweetjoeSat, 15 Sep 2018 1:04:15 pm
73.famandusSat, 15 Sep 2018 3:05:50 pm
74.2donickySat, 15 Sep 2018 6:01:18 pm
75.golodhSat, 15 Sep 2018 8:58:50 pm
76.CrapionSat, 15 Sep 2018 9:51:28 pm
77.DenDulleSat, 15 Sep 2018 10:15:12 pm
78.geo_bartendanielleSat, 15 Sep 2018 10:40:55 pm
79.DEN TROLSun, 16 Sep 2018 12:18:08 pm
80.veromekeSun, 16 Sep 2018 5:31:42 pm
81.KLUPPELSun, 16 Sep 2018 8:59:42 pm
82.tripper13Mon, 17 Sep 2018 8:18:25 am
83.lankatrasMon, 17 Sep 2018 12:38:02 pm
84.fravanoMon, 17 Sep 2018 8:42:24 pm
85.homeboyMon, 17 Sep 2018 9:15:32 pm
86.BergheboyMon, 17 Sep 2018 9:25:01 pm
87.tismooizoTue, 18 Sep 2018 12:17:09 pm
88.PtitmamanNeroBelgiumTue, 18 Sep 2018 12:57:04 pm
89.AladaubeTue, 18 Sep 2018 5:41:50 pm
90.De woesten en SmurfelTue, 18 Sep 2018 7:20:43 pm
91.Team_Griml0rdTue, 18 Sep 2018 9:39:04 pm
92.tigerententeamTue, 18 Sep 2018 9:55:25 pm
93.RudyDCTue, 18 Sep 2018 11:49:58 pm